QPF
0.00 0.00 0.00 0.00 0.00 0.00 0.00 0.00 0.00 0.00 0.00 0.00 0.00 0.00 0.01 0.02 0.02 0.01 0.01 0.01 0.01 0.02 0.03 0.04 0.04 0.05 0.06 0.08 0.10 0.12 0.14 0.13 0.12 0.12 0.12 0.14 0.17 0.18
0.00 0.00 0.00 0.00 0.00 0.00 0.00 0.00 0.00 0.00 0.00 0.00 0.00 0.00 0.01 0.02 0.02 0.01 0.02 0.02 0.01 0.01 0.01 0.02 0.03 0.04 0.05 0.06 0.05 0.05 0.06 0.07 0.08 0.09 0.09 0.10 0.10 0.12
0.00 0.00 0.00 0.00 0.00 0.00 0.00 0.00 0.00 0.00 0.00 0.00 0.00 0.00 0.00 0.01 0.01 0.01 0.01 0.01 0.01 0.01 0.00 0.00 0.01 0.01 0.02 0.03 0.04 0.05 0.05 0.05 0.05 0.05 0.05 0.05 0.06 0.07
0.00 0.00 0.00 0.00 0.00 0.00 0.00 0.00 0.00 0.00 0.00 0.00 0.00 0.00 0.00 0.00 0.00 0.01 0.01 0.01 0.01 0.01 0.00 0.00 0.00 0.01 0.01 0.01 0.01 0.02 0.03 0.03 0.03 0.03 0.03 0.04 0.05 0.05
0.00 0.00 0.00 0.00 0.00 0.00 0.00 0.00 0.00 0.00 0.00 0.00 0.00 0.00 0.00 0.00 0.00 0.00 0.00 0.00 0.00 0.00 0.00 0.00 0.00 0.01 0.01 0.01 0.01 0.01 0.01 0.01 0.01 0.02 0.01 0.02 0.02 0.03
0.00 0.00 0.00 0.00 0.00 0.00 0.00 0.00 0.00 0.00 0.00 0.00 0.00 0.00 0.00 0.00 0.00 0.00 0.00 0.00 0.00 0.00 0.00 0.00 0.00 0.00 0.00 0.00 0.01 0.02 0.02 0.01 0.01 0.01 0.01 0.01 0.01 0.01
0.00 0.00 0.00 0.00 0.00 0.00 0.00 0.00 0.00 0.00 0.00 0.00 0.00 0.00 0.00 0.00 0.00 0.00 0.00 0.00 0.00 0.00 0.00 0.00 0.00 0.00 0.00 0.00 0.01 0.01 0.02 0.02 0.02 0.02 0.01 0.01 0.01 0.01
0.01 0.01 0.01 0.00 0.00 0.00 0.00 0.00 0.00 0.00 0.00 0.00 0.00 0.00 0.00 0.00 0.00 0.00 0.00 0.00 0.00 0.00 0.00 0.00 0.00 0.00 0.00 0.00 0.00 0.00 0.01 0.01 0.02 0.02 0.02 0.02 0.01 0.01
0.01 0.01 0.00 0.00 0.00 0.00 0.00 0.00 0.00 0.00 0.00 0.00 0.00 0.00 0.00 0.00 0.00 0.00 0.00 0.00 0.00 0.00 0.00 0.00 0.00 0.00 0.00 0.00 0.00 0.00 0.00 0.00 0.01 0.01 0.01 0.01 0.01 0.01
0.00 0.00 0.00 0.00 0.00 0.00 0.00 0.00 0.00 0.00 0.00 0.00 0.00 0.00 0.00 0.00 0.00 0.00 0.00 0.00 0.00 0.00 0.00 0.00 0.00 0.00 0.00 0.00 0.00 0.00 0.01 0.01 0.01 0.00 0.01 0.00 0.00 0.01
0.00 0.00 0.00 0.00 0.00 0.00 0.00 0.00 0.00 0.00 0.00 0.00 0.00 0.00 0.00 0.00 0.00 0.00 0.00 0.00 0.00 0.00 0.00 0.00 0.00 0.00 0.00 0.00 0.00 0.00 0.00 0.01 0.01 0.01 0.01 0.01 0.01 0.01
0.00 0.00 0.00 0.00 0.00 0.00 0.00 0.00 0.00 0.00 0.00 0.00 0.00 0.00 0.00 0.00 0.00 0.00 0.00 0.00 0.00 0.00 0.00 0.00 0.00 0.00 0.00 0.00 0.00 0.00 0.00 0.00 0.01 0.01 0.01 0.01 0.01 0.01
0.00 0.00 0.00 0.00 0.00 0.00 0.00 0.00 0.00 0.00 0.00 0.00 0.00 0.00 0.00 0.00 0.00 0.00 0.00 0.00 0.00 0.00 0.00 0.00 0.00 0.00 0.00 0.00 0.00 0.00 0.00 0.00 0.00 0.00 0.00 0.00 0.01 0.01
0.01 0.01 0.00 0.00 0.00 0.00 0.00 0.00 0.00 0.00 0.00 0.00 0.00 0.00 0.00 0.00 0.00 0.00 0.00 0.00 0.00 0.00 0.00 0.00 0.00 0.00 0.00 0.00 0.00 0.00 0.01 0.01 0.01 0.00 0.00 0.00 0.00 0.00
0.01 0.01 0.01 0.01 0.01 0.01 0.01 0.01 0.01 0.01 0.00 0.00 0.00 0.00 0.00 0.00 0.00 0.00 0.00 0.00 0.00 0.00 0.00 0.00 0.00 0.01 0.01 0.01 0.01 0.01 0.01 0.00 0.00 0.00 0.00 0.00 0.00 0.00
0.01 0.01 0.01 0.02 0.02 0.02 0.01 0.01 0.01 0.01 0.01 0.00 0.00 0.00 0.00 0.00 0.00 0.00 0.00 0.00 0.00 0.00 0.00 0.01 0.01 0.01 0.01 0.01 0.02 0.01 0.01 0.01 0.01 0.01 0.01 0.01 0.01 0.00
0.01 0.00 0.01 0.01 0.01 0.01 0.01 0.01 0.01 0.01 0.01 0.01 0.01 0.00 0.00 0.00 0.00 0.00 0.00 0.00 0.00 0.00 0.00 0.00 0.01 0.01 0.01 0.01 0.01 0.01 0.01 0.01 0.00 0.00 0.01 0.01 0.01 0.01
0.01 0.01 0.01 0.01 0.01 0.01 0.01 0.01 0.01 0.01 0.01 0.01 0.01 0.01 0.00 0.00 0.00 0.00 0.01 0.01 0.01 0.01 0.00 0.00 0.01 0.01 0.01 0.00 0.00 0.00 0.00 0.00 0.00 0.00 0.00 0.00 0.00 0.01
0.01 0.01 0.00 0.01 0.01 0.01 0.01 0.00 0.00 0.00 0.00 0.00 0.00 0.00 0.00 0.00 0.01 0.01 0.00 0.00 0.01 0.00 0.01 0.01 0.01 0.01 0.01 0.01 0.00 0.00 0.00 0.00 0.00 0.00 0.01 0.01 0.01 0.01
0.01 0.01 0.01 0.01 0.01 0.01 0.01 0.00 0.00 0.00 0.00 0.00 0.01 0.01 0.01 0.01 0.01 0.01 0.01 0.01 0.01 0.01 0.01 0.01 0.01 0.01 0.02 0.01 0.01 0.00 0.00 0.01 0.01 0.01 0.01 0.01 0.01 0.01
0.02 0.02 0.02 0.01 0.01 0.01 0.01 0.01 0.01 0.01 0.01 0.01 0.01 0.01 0.01 0.01 0.02 0.02 0.02 0.02 0.02 0.02 0.01 0.01 0.01 0.01 0.02 0.02 0.01 0.01 0.01 0.01 0.01 0.01 0.01 0.01 0.01 0.01
0.02 0.02 0.02 0.02 0.02 0.02 0.02 0.02 0.02 0.02 0.02 0.02 0.02 0.02 0.02 0.02 0.03 0.03 0.03 0.03 0.03 0.02 0.02 0.01 0.01 0.02 0.02 0.03 0.02 0.02 0.01 0.01 0.02 0.02 0.02 0.02 0.02 0.01
0.02 0.02 0.02 0.02 0.02 0.02 0.03 0.03 0.03 0.03 0.03 0.04 0.04 0.04 0.03 0.03 0.03 0.02 0.02 0.02 0.02 0.02 0.02 0.02 0.02 0.02 0.02 0.02 0.02 0.02 0.02 0.02 0.02 0.02 0.02 0.02 0.02 0.01
MSLP
1021.18 1021.33 1021.52 1021.71 1021.88 1022.01 1022.07 1022.06 1021.98 1021.83 1021.64 1021.42 1021.18 1020.92 1020.67 1020.43 1020.21 1020.02 1019.88 1019.79 1019.75 1019.77 1019.83 1019.91 1020.00 1020.06 1020.09 1020.05 1019.96 1019.82 1019.65 1019.46 1019.29 1019.15 1019.06 1019.03 1019.06 1019.13
1021.11 1021.25 1021.43 1021.60 1021.75 1021.87 1021.94 1021.95 1021.91 1021.81 1021.68 1021.51 1021.32 1021.10 1020.86 1020.62 1020.37 1020.14 1019.93 1019.76 1019.65 1019.59 1019.59 1019.63 1019.68 1019.72 1019.74 1019.71 1019.63 1019.50 1019.33 1019.14 1018.95 1018.78 1018.65 1018.57 1018.54 1018.55
1021.01 1021.14 1021.29 1021.43 1021.57 1021.67 1021.73 1021.76 1021.74 1021.69 1021.61 1021.51 1021.37 1021.19 1020.99 1020.76 1020.51 1020.25 1020.00 1019.77 1019.59 1019.47 1019.39 1019.37 1019.37 1019.38 1019.38 1019.35 1019.27 1019.15 1018.99 1018.81 1018.62 1018.44 1018.29 1018.18 1018.11 1018.08
1020.89 1021.00 1021.12 1021.24 1021.35 1021.43 1021.48 1021.51 1021.51 1021.50 1021.47 1021.41 1021.33 1021.21 1021.05 1020.85 1020.62 1020.35 1020.08 1019.82 1019.58 1019.39 1019.25 1019.16 1019.10 1019.06 1019.03 1018.97 1018.89 1018.77 1018.62 1018.46 1018.28 1018.11 1017.96 1017.85 1017.76 1017.71
1020.76 1020.85 1020.95 1021.03 1021.11 1021.17 1021.20 1021.23 1021.24 1021.24 1021.24 1021.23 1021.19 1021.13 1021.02 1020.86 1020.66 1020.42 1020.14 1019.86 1019.59 1019.35 1019.15 1018.99 1018.86 1018.76 1018.67 1018.58 1018.47 1018.35 1018.21 1018.05 1017.90 1017.75 1017.63 1017.52 1017.44 1017.39
1020.58 1020.65 1020.73 1020.79 1020.85 1020.88 1020.90 1020.91 1020.92 1020.93 1020.94 1020.95 1020.95 1020.92 1020.86 1020.75 1020.59 1020.38 1020.13 1019.85 1019.57 1019.29 1019.04 1018.82 1018.62 1018.45 1018.29 1018.15 1018.00 1017.85 1017.70 1017.56 1017.43 1017.31 1017.22 1017.15 1017.09 1017.06
1020.31 1020.37 1020.44 1020.49 1020.53 1020.55 1020.55 1020.55 1020.54 1020.54 1020.54 1020.56 1020.57 1020.57 1020.54 1020.47 1020.36 1020.19 1019.98 1019.72 1019.44 1019.15 1018.86 1018.58 1018.32 1018.07 1017.85 1017.63 1017.44 1017.25 1017.09 1016.95 1016.83 1016.75 1016.69 1016.66 1016.65 1016.65
1019.91 1019.98 1020.04 1020.10 1020.13 1020.14 1020.13 1020.11 1020.08 1020.06 1020.05 1020.05 1020.06 1020.06 1020.05 1020.02 1019.94 1019.81 1019.64 1019.41 1019.15 1018.86 1018.54 1018.22 1017.91 1017.59 1017.30 1017.02 1016.77 1016.54 1016.35 1016.20 1016.10 1016.04 1016.02 1016.03 1016.06 1016.10
1019.38 1019.45 1019.53 1019.59 1019.63 1019.65 1019.63 1019.59 1019.55 1019.49 1019.45 1019.42 1019.41 1019.40 1019.40 1019.38 1019.33 1019.24 1019.10 1018.91 1018.67 1018.38 1018.06 1017.72 1017.36 1017.00 1016.64 1016.30 1015.99 1015.73 1015.51 1015.35 1015.24 1015.20 1015.20 1015.25 1015.32 1015.40
1018.73 1018.82 1018.90 1018.98 1019.04 1019.06 1019.04 1018.99 1018.93 1018.84 1018.77 1018.70 1018.66 1018.63 1018.61 1018.59 1018.55 1018.48 1018.38 1018.22 1018.00 1017.74 1017.42 1017.07 1016.69 1016.29 1015.89 1015.51 1015.16 1014.86 1014.61 1014.43 1014.31 1014.27 1014.28 1014.35 1014.43 1014.53
1018.02 1018.11 1018.21 1018.31 1018.38 1018.41 1018.39 1018.34 1018.25 1018.14 1018.03 1017.93 1017.84 1017.79 1017.74 1017.71 1017.67 1017.62 1017.53 1017.39 1017.21 1016.96 1016.66 1016.31 1015.92 1015.51 1015.09 1014.69 1014.31 1013.97 1013.70 1013.49 1013.36 1013.31 1013.31 1013.36 1013.45 1013.55
1017.31 1017.40 1017.51 1017.62 1017.69 1017.73 1017.71 1017.65 1017.55 1017.41 1017.27 1017.14 1017.02 1016.93 1016.87 1016.81 1016.77 1016.71 1016.63 1016.51 1016.34 1016.11 1015.83 1015.50 1015.12 1014.71 1014.29 1013.87 1013.48 1013.13 1012.83 1012.60 1012.44 1012.35 1012.33 1012.36 1012.42 1012.49
1016.65 1016.74 1016.85 1016.95 1017.03 1017.06 1017.03 1016.96 1016.84 1016.69 1016.53 1016.37 1016.23 1016.12 1016.03 1015.95 1015.89 1015.83 1015.74 1015.63 1015.47 1015.25 1014.99 1014.67 1014.30 1013.91 1013.50 1013.08 1012.69 1012.33 1012.01 1011.76 1011.57 1011.44 1011.37 1011.35 1011.35 1011.38
1016.07 1016.16 1016.25 1016.34 1016.39 1016.40 1016.37 1016.28 1016.15 1015.99 1015.82 1015.65 1015.49 1015.36 1015.25 1015.16 1015.09 1015.01 1014.91 1014.79 1014.62 1014.41 1014.15 1013.85 1013.50 1013.12 1012.72 1012.32 1011.93 1011.56 1011.23 1010.95 1010.71 1010.54 1010.41 1010.33 1010.27 1010.24
1015.56 1015.63 1015.71 1015.76 1015.79 1015.77 1015.71 1015.60 1015.46 1015.30 1015.12 1014.95 1014.80 1014.66 1014.55 1014.45 1014.35 1014.25 1014.14 1014.00 1013.82 1013.60 1013.33 1013.03 1012.69 1012.32 1011.94 1011.54 1011.15 1010.78 1010.43 1010.11 1009.84 1009.61 1009.42 1009.27 1009.16 1009.07
1015.09 1015.14 1015.18 1015.20 1015.19 1015.14 1015.05 1014.92 1014.77 1014.60 1014.43 1014.27 1014.13 1014.00 1013.88 1013.78 1013.67 1013.55 1013.41 1013.25 1013.04 1012.80 1012.52 1012.20 1011.86 1011.49 1011.11 1010.71 1010.32 1009.93 1009.56 1009.21 1008.90 1008.61 1008.36 1008.15 1007.98 1007.83
1014.61 1014.64 1014.65 1014.63 1014.58 1014.49 1014.36 1014.22 1014.06 1013.89 1013.73 1013.59 1013.46 1013.35 1013.24 1013.13 1013.02 1012.88 1012.71 1012.51 1012.27 1012.00 1011.69 1011.35 1010.99 1010.61 1010.21 1009.80 1009.39 1008.99 1008.59 1008.21 1007.85 1007.51 1007.21 1006.95 1006.72 1006.53
1014.08 1014.10 1014.08 1014.03 1013.94 1013.81 1013.66 1013.49 1013.32 1013.16 1013.02 1012.89 1012.79 1012.69 1012.60 1012.50 1012.37 1012.22 1012.03 1011.79 1011.51 1011.20 1010.86 1010.48 1010.09 1009.68 1009.26 1008.83 1008.39 1007.96 1007.53 1007.11 1006.70 1006.32 1005.97 1005.67 1005.40 1005.18
1013.52 1013.53 1013.50 1013.41 1013.29 1013.13 1012.95 1012.77 1012.59 1012.44 1012.31 1012.20 1012.12 1012.04 1011.97 1011.87 1011.74 1011.58 1011.36 1011.09 1010.78 1010.43 1010.04 1009.63 1009.19 1008.75 1008.29 1007.83 1007.36 1006.89 1006.42 1005.96 1005.51 1005.09 1004.70 1004.35 1004.06 1003.82
1012.98 1012.99 1012.94 1012.83 1012.68 1012.50 1012.30 1012.10 1011.92 1011.77 1011.65 1011.56 1011.50 1011.44 1011.38 1011.29 1011.16 1010.98 1010.75 1010.45 1010.11 1009.72 1009.29 1008.84 1008.37 1007.89 1007.39 1006.89 1006.38 1005.87 1005.36 1004.85 1004.36 1003.89 1003.47 1003.08 1002.75 1002.49
1012.52 1012.53 1012.47 1012.34 1012.17 1011.96 1011.75 1011.54 1011.35 1011.20 1011.09 1011.01 1010.96 1010.92 1010.87 1010.78 1010.65 1010.47 1010.22 1009.91 1009.54 1009.12 1008.67 1008.18 1007.67 1007.15 1006.61 1006.07 1005.52 1004.96 1004.40 1003.85 1003.31 1002.80 1002.33 1001.91 1001.54 1001.25
1012.22 1012.21 1012.14 1012.00 1011.80 1011.58 1011.35 1011.12 1010.93 1010.77 1010.66 1010.59 1010.55 1010.51 1010.46 1010.38 1010.25 1010.06 1009.81 1009.49 1009.10 1008.66 1008.18 1007.66 1007.12 1006.56 1005.98 1005.40 1004.80 1004.20 1003.59 1002.99 1002.41 1001.85 1001.33 1000.86 1000.45 1000.11
1012.10 1012.08 1011.98 1011.82 1011.60 1011.35 1011.10 1010.86 1010.65 1010.49 1010.37 1010.30 1010.25 1010.22 1010.17 1010.09 1009.96 1009.77 1009.50 1009.17 1008.77 1008.31 1007.81 1007.27 1006.69 1006.10 1005.48 1004.85 1004.21 1003.56 1002.91 1002.26 1001.63 1001.02 1000.45 999.93 999.47 999.08
Thickness
5681 5680 5679 5678 5677 5677 5675 5673 5669 5664 5664 5665 5668 5670 5670 5671 5671 5671 5671 5672 5671 5672 5672 5673 5673 5674 5674 5675 5675 5676 5677 5678 5679 5680 5681 5681 5682 5682
5678 5677 5676 5675 5674 5673 5672 5670 5668 5665 5661 5662 5663 5664 5665 5666 5666 5666 5667 5667 5667 5667 5667 5668 5668 5669 5669 5670 5671 5671 5672 5673 5674 5675 5676 5677 5678 5678
5676 5675 5673 5672 5671 5670 5668 5667 5665 5663 5660 5659 5659 5660 5660 5661 5661 5661 5662 5662 5662 5663 5663 5663 5664 5664 5665 5665 5666 5667 5668 5668 5669 5670 5671 5672 5673 5674
5674 5672 5671 5670 5668 5667 5665 5664 5662 5660 5658 5656 5656 5656 5656 5656 5656 5656 5657 5657 5657 5658 5659 5659 5659 5660 5660 5661 5661 5662 5663 5663 5664 5665 5666 5667 5668 5668
5672 5671 5669 5668 5666 5664 5663 5661 5659 5658 5655 5653 5652 5651 5651 5651 5651 5652 5652 5652 5653 5654 5654 5655 5655 5655 5655 5656 5657 5657 5658 5659 5660 5660 5661 5662 5662 5663
5671 5669 5668 5666 5665 5663 5661 5658 5656 5654 5652 5650 5648 5647 5647 5647 5646 5646 5647 5648 5648 5650 5650 5650 5650 5650 5651 5651 5652 5653 5653 5654 5654 5655 5656 5656 5657 5658
5669 5668 5666 5665 5663 5661 5659 5657 5654 5651 5649 5647 5645 5644 5644 5643 5642 5642 5642 5642 5643 5644 5645 5645 5645 5645 5646 5647 5647 5648 5648 5649 5649 5650 5650 5651 5651 5652
5667 5666 5664 5663 5662 5660 5658 5656 5653 5650 5647 5644 5643 5641 5641 5640 5639 5638 5637 5636 5637 5639 5638 5640 5640 5641 5641 5642 5643 5643 5643 5644 5644 5644 5645 5645 5645 5646
5665 5663 5662 5661 5659 5658 5656 5654 5652 5650 5647 5644 5642 5641 5640 5639 5636 5635 5633 5631 5632 5634 5631 5635 5636 5636 5638 5638 5639 5639 5638 5638 5639 5639 5639 5639 5639 5640
5662 5660 5659 5658 5656 5654 5652 5650 5649 5647 5645 5643 5641 5640 5639 5637 5633 5631 5630 5628 5628 5628 5626 5627 5631 5631 5633 5633 5634 5634 5633 5633 5633 5633 5633 5633 5634 5634
5660 5658 5656 5655 5654 5651 5648 5647 5646 5645 5644 5641 5639 5638 5636 5633 5629 5626 5625 5623 5625 5626 5623 5621 5625 5626 5627 5628 5628 5628 5627 5627 5627 5627 5627 5627 5627 5627
5658 5656 5654 5653 5651 5648 5645 5643 5641 5642 5639 5638 5636 5634 5632 5630 5627 5623 5622 5619 5619 5620 5620 5616 5618 5617 5620 5622 5621 5620 5620 5620 5620 5620 5620 5620 5620 5619
5655 5654 5653 5650 5647 5645 5642 5640 5639 5637 5634 5631 5630 5629 5628 5626 5624 5621 5618 5615 5614 5615 5615 5610 5611 5609 5608 5613 5615 5614 5613 5613 5614 5614 5614 5614 5614 5612
5652 5652 5650 5647 5644 5640 5638 5636 5633 5629 5627 5625 5624 5624 5623 5623 5621 5618 5614 5612 5610 5610 5609 5605 5604 5603 5602 5604 5607 5609 5608 5606 5606 5608 5608 5608 5608 5607
5650 5648 5645 5641 5638 5636 5633 5630 5627 5624 5622 5620 5620 5620 5619 5617 5614 5612 5610 5607 5605 5604 5603 5599 5597 5596 5594 5595 5599 5600 5600 5601 5600 5600 5601 5601 5601 5601
5643 5641 5638 5635 5632 5630 5627 5625 5622 5619 5617 5615 5615 5614 5612 5609 5607 5605 5603 5601 5599 5601 5599 5595 5592 5589 5589 5589 5589 5591 5591 5591 5593 5592 5593 5594 5595 5595
5638 5634 5631 5629 5627 5625 5622 5619 5616 5613 5610 5609 5607 5605 5604 5602 5601 5598 5594 5592 5590 5592 5593 5590 5586 5583 5582 5582 5582 5584 5584 5585 5585 5585 5583 5586 5589 5590
5630 5628 5626 5623 5621 5619 5616 5614 5611 5608 5605 5602 5600 5597 5596 5594 5593 5591 5586 5584 5583 5583 5583 5581 5577 5575 5575 5577 5575 5575 5577 5578 5578 5577 5575 5577 5583 5585
5623 5622 5620 5617 5615 5612 5608 5605 5604 5602 5598 5595 5592 5590 5588 5586 5584 5582 5580 5577 5576 5575 5574 5571 5568 5565 5566 5572 5577 5569 5568 5570 5570 5570 5570 5570 5574 5578
5616 5615 5613 5611 5608 5605 5602 5598 5596 5593 5589 5587 5585 5582 5580 5577 5575 5574 5572 5569 5568 5567 5565 5563 5560 5558 5557 5561 5565 5566 5561 5560 5561 5563 5565 5566 5567 5569
5611 5608 5606 5603 5600 5597 5593 5590 5587 5584 5581 5578 5576 5574 5571 5568 5567 5565 5563 5560 5557 5557 5557 5557 5556 5551 5550 5549 5552 5558 5558 5555 5554 5554 5557 5558 5561 5563
5603 5600 5598 5594 5591 5587 5584 5580 5578 5575 5572 5569 5567 5565 5562 5559 5557 5556 5554 5552 5550 5549 5548 5549 5547 5543 5541 5541 5546 5550 5552 5551 5549 5548 5548 5549 5551 5557
5594 5591 5588 5585 5581 5577 5574 5571 5568 5566 5563 5560 5558 5555 5552 5549 5547 5545 5544 5542 5541 5541 5540 5539 5538 5536 5535 5535 5537 5540 5542 5543 5544 5545 5547 5547 5546 5548